[[{"header":{"parameterUnit":"m.s-1","parameterCategory":1,"la1":30.2991,"la2":30.254,"lo1":-89.0895,"lo2":-89.0444,"dy":0.0017,"dx":0.0017,"nx":28,"ny":28,"refTime":"2025-08-30T21:00:00:Z","depth":0,"parameterNumber":2,"parameterNumberName":"U-component_of_WINDS"},"data":[0,0,0,0,0,0,0,0,0,0,0,0,0,0,0,0,0,0,0,0,0,0,0,0,0,0,0,0,0,0,0,0,0,0,0,0,0,0,0,0,0,0,0,0,0,0,0,0,0,0,0,0,0,0,0,0,0,0,-3.1674,-3.1674,0,-3.1739,-3.174,-3.1741,-3.1716,-3.1715,-3.1713,-3.1712,-3.1776,-3.1779,-3.1782,0,0,0,0,0,0,0,0,0,0,0,0,0,-3.1522,-3.1525,-3.1673,-3.1674,-3.1675,-3.1739,-3.174,-3.1741,-3.1716,-3.1714,-3.1713,-3.1711,-3.1775,-3.1779,-3.1783,0,0,0,0,0,0,0,0,0,0,0,0,0,-3.1588,-3.1526,-3.1673,-3.1671,-3.1671,-3.1739,-3.174,-3.1741,-3.1717,-3.1714,-3.1712,-3.171,-3.1774,-3.1778,-3.1783,-3.1856,0,0,-3.1797,-3.1799,0,0,0,0,0,0,0,0,-3.1584,-3.1593,-3.167,-3.1671,-3.1672,-3.1717,-3.171,-3.178,-3.1717,-3.1699,-3.1712,-3.1709,-3.1758,-3.1764,-3.1781,-3.1859,-3.1862,-3.1798,-3.18,-3.1802,-3.1804,0,0,0,0,0,0,0,-3.158,-3.159,-3.1699,-3.1671,-3.1672,-3.1665,-3.1671,-3.1723,-3.174,-3.1701,-3.1699,-3.1707,-3.1758,-3.1777,-3.1782,-3.1863,-3.1798,-3.1802,-3.1805,-3.1806,-3.2001,-3.2003,0,0,0,0,0,0,-3.1575,-3.1587,-3.1697,-3.1701,-3.1622,-3.1669,-3.1677,-3.1705,-3.174,-3.1743,-3.1709,-3.1706,-3.177,-3.1777,-3.1785,-3.1869,-3.1802,-3.1807,-3.1809,-3.1998,-3.2001,-3.2004,0,0,0,0,0,0,-3.1572,-3.1586,-3.1695,-3.1644,-3.1657,-3.1674,-3.1706,-3.1707,-3.1726,-3.1746,-3.1749,-3.1725,-3.1768,-3.1778,-3.1838,-3.1871,-3.1809,-3.1813,-3.1995,-3.1999,-3.2002,-3.2042,0,0,0,0,0,0,-3.1568,-3.1585,-3.1614,-3.1645,-3.166,-3.1748,-3.1708,-3.171,-3.1734,-3.1731,-3.1762,-3.1765,-3.1767,-3.1831,-3.1843,-3.1877,-3.1817,-3.1992,-3.1997,-3.2001,-3.2037,-3.2046,-3.2053,0,0,0,0,0,-3.1563,-3.1623,-3.1616,-3.1629,-3.1697,-3.175,-3.1759,-3.1761,-3.1737,-3.1765,-3.1778,-3.1764,-3.1867,-3.1837,-3.185,-3.1886,-3.199,-3.1996,-3.2001,-3.2034,-3.2044,-3.2053,0,0,0,0,0,0,-3.1595,-3.1627,-3.1619,-3.1691,-3.1718,-3.1746,-3.1782,-3.1773,-3.1807,-3.1802,-3.1803,-3.181,-3.1871,-3.1885,-3.1852,-3.1957,-3.1924,-3.1933,-3.1945,-3.1955,-3.1963,-3.1957,-3.1821,0,0,0,0,0,-3.1611,-3.1653,-3.1678,-3.1739,-3.1753,-3.1765,-3.1789,-3.1788,-3.1816,-3.1827,-3.1844,-3.187,-3.1908,-3.1933,-3.1969,-3.204,-3.2044,-3.2071,-3.2079,-3.2085,-3.2091,-3.2126,-3.2137,-3.2021,-3.2021,-3.2021,0,0,-3.1643,-3.1666,-3.1692,-3.1746,-3.1767,-3.1808,-3.1775,-3.1821,-3.1851,-3.1834,-3.189,-3.1904,-3.1933,-3.1998,-3.2027,-3.2011,-3.2125,-3.2092,-3.2097,-3.21,-3.2132,-3.2143,-3.2153,-3.2025,-3.2024,-3.2023,0,0,-3.1723,-3.1746,-3.1797,-3.1818,-3.185,-3.1858,-3.187,-3.1899,-3.1907,-3.1965,-3.1951,-3.1986,-3.2053,-3.2073,-3.2092,-3.2177,-3.2163,-3.2189,-3.223,-3.2263,-3.2272,-3.228,-3.2307,-3.2316,-3.2195,-3.2195,-3.2195,0,-3.1758,-3.1821,-3.1824,-3.187,-3.1892,-3.1879,-3.1929,-3.195,-3.1992,-3.2007,-3.1989,-3.2069,-3.2089,-3.2156,-3.2176,-3.2194,-3.2205,-3.2184,-3.2271,-3.2279,-3.2286,-3.2311,-3.2322,-3.2198,-3.2198,-3.2197,-3.2197,0,-3.1862,-3.1905,-3.1943,-3.1983,-3.201,-3.2058,-3.2066,-3.2093,-3.209,-3.2098,-3.2155,-3.2177,-3.2216,-3.2233,-3.223,-3.2298,-3.2287,-3.2271,-3.2237,-3.23,-3.2323,-3.2333,-3.2201,-3.2201,-3.22,-3.2199,0,0,-3.1963,-3.2003,-3.2016,-3.2033,-3.2066,-3.2099,-3.2145,-3.2184,-3.2204,-3.2234,-3.227,-3.2326,-3.2309,-3.2331,-3.2331,-3.2361,-3.2421,-3.234,-3.234,-3.2351,-3.2493,-3.2503,-3.2515,-3.2414,-3.2416,-3.2418,-3.249,0,-3.2042,-3.2123,-3.2126,-3.22,-3.2238,-3.2225,-3.2265,-3.2288,-3.2298,-3.233,-3.234,-3.2378,-3.2356,-3.2368,-3.2397,-3.2408,-3.2449,-3.2403,-3.2445,-3.2446,-3.2435,-3.2528,-3.2539,-3.2606,-3.2499,-3.2501,-3.2502,0,-3.2145,-3.2176,-3.2253,-3.2278,-3.2294,-3.233,-3.2363,-3.2396,-3.2421,-3.2426,-3.2449,-3.2444,-3.2488,-3.2456,-3.2515,-3.2484,-3.2501,-3.2509,-3.2512,-3.2513,-3.2476,-3.2528,-3.2628,-3.2636,-3.2517,-3.2516,-3.2515,0,-3.2205,-3.2268,-3.2321,-3.2336,-3.2368,-3.2392,-3.2406,-3.243,-3.2452,-3.2481,-3.2494,-3.2528,-3.2546,-3.2572,-3.2575,-3.2552,-3.2633,-3.2602,-3.2635,-3.2635,-3.2651,-3.2649,-3.2751,-3.2668,-3.2668,-3.2668,-3.2668,0,-3.2291,-3.2338,-3.2348,-3.238,-3.2431,-3.2434,-3.2484,-3.2496,-3.2516,-3.2549,-3.2541,-3.2572,-3.2576,-3.2607,-3.261,-3.2656,-3.2666,-3.2668,-3.2668,-3.2667,-3.2666,-3.2676,-3.267,-3.2671,-3.267,-3.2669,-3.2669,0,-3.2367,-3.2376,-3.2432,-3.2457,-3.2464,-3.25,-3.2521,-3.2551,-3.2559,-3.26,-3.261,-3.2622,-3.2658,-3.2664,-3.2707,-3.2709,-3.2764,-3.276,-3.2755,-3.2753,-3.2785,-3.278,-3.2894,-3.2907,-3.2819,-3.282,-3.282,0,-3.2419,-3.2455,-3.2483,-3.2504,-3.2519,-3.2555,-3.2576,-3.258,-3.2602,-3.2633,-3.2658,-3.2693,-3.2721,-3.2779,-3.2791,-3.2822,-3.2817,-3.2855,-3.2822,-3.2819,-3.2813,-3.281,-3.2812,-3.286,-3.2861,-3.2862,-3.2863,0,-3.251,-3.2512,-3.2544,-3.2577,-3.2603,-3.2629,-3.2654,-3.2672,-3.2678,-3.2703,-3.274,-3.2761,-3.2804,-3.2838,-3.2869,-3.2882,-3.2872,-3.2873,-3.2882,-3.288,-3.2874,-3.2874,-3.2768,-3.287,-3.2869,-3.2869,-3.2868,-3.2868,-3.2573,-3.2602,-3.2626,-3.2661,-3.268,-3.2702,-3.273,-3.2742,-3.2772,-3.2807,-3.2808,-3.2847,-3.2868,-3.2909,-3.2924,-3.2953,-3.2941,-3.2955,-3.2958,-3.296,-3.2961,-3.2872,-3.296,-3.2959,-3.2959,-3.2959,-3.2959,0,-3.266,-3.2674,-3.2707,-3.274,-3.2767,-3.2757,-3.2783,-3.2806,-3.284,-3.2862,-3.289,-3.293,-3.2962,-3.2976,-3.3007,-3.3028,-3.3024,-3.3036,-3.3032,-3.3035,-3.2972,-3.296,-3.3038,-3.3038,-3.3038,-3.3038,-3.3038,-3.3038,-3.2708,-3.2756,-3.2761,-3.2817,-3.2831,-3.2869,-3.2884,-3.2904,-3.2921,-3.2966,-3.2993,-3.3002,-3.302,-3.3052,-3.308,-3.3083,-3.3093,-3.3106,-3.3107,-3.3048,-3.304,-3.3032,-3.302,-3.3109,-3.3109,-3.3166,-3.3167,-3.3167]},{"header":{"parameterUnit":"m.s-1","parameterCategory":1,"la1":30.2991,"la2":30.254,"lo1":-89.0895,"lo2":-89.0444,"dy":0.0017,"dx":0.0017,"nx":28,"ny":28,"refTime":"2025-08-30T21:00:00:Z","depth":0,"parameterNumber":3,"parameterNumberName":"V-component_of_WINDS"},"data":[0,0,0,0,0,0,0,0,0,0,0,0,0,0,0,0,0,0,0,0,0,0,0,0,0,0,0,0,0,0,0,0,0,0,0,0,0,0,0,0,0,0,0,0,0,0,0,0,0,0,0,0,0,0,0,0,0,0,-2.0597,-2.0597,0,-2.0599,-2.0599,-2.0599,-2.0599,-2.0599,-2.0599,-2.0599,-2.06,-2.06,-2.06,0,0,0,0,0,0,0,0,0,0,0,0,0,-2.0593,-2.0593,-2.0597,-2.0597,-2.0597,-2.0599,-2.0599,-2.0599,-2.0599,-2.0599,-2.0599,-2.0599,-2.06,-2.06,-2.06,0,0,0,0,0,0,0,0,0,0,0,0,0,-2.0595,-2.0593,-2.0597,-2.0597,-2.0597,-2.0599,-2.0599,-2.0599,-2.0599,-2.0599,-2.0599,-2.0599,-2.06,-2.06,-2.06,-2.0602,0,0,-2.0601,-2.0601,0,0,0,0,0,0,0,0,-2.0594,-2.0595,-2.0597,-2.0597,-2.0597,-2.0598,-2.0598,-2.06,-2.0599,-2.0598,-2.0599,-2.0599,-2.06,-2.06,-2.06,-2.0602,-2.0602,-2.0601,-2.0601,-2.0601,-2.0601,0,0,0,0,0,0,0,-2.0594,-2.0595,-2.0598,-2.0597,-2.0597,-2.0597,-2.0597,-2.0598,-2.0599,-2.0598,-2.0598,-2.0598,-2.06,-2.06,-2.06,-2.0602,-2.0601,-2.0601,-2.0601,-2.0601,-2.0602,-2.0602,0,0,0,0,0,0,-2.0594,-2.0595,-2.0598,-2.0598,-2.0596,-2.0597,-2.0597,-2.0598,-2.0599,-2.0599,-2.0598,-2.0598,-2.06,-2.06,-2.06,-2.0601,-2.0601,-2.0601,-2.0601,-2.0602,-2.0602,-2.0602,0,0,0,0,0,0,-2.0594,-2.0595,-2.0597,-2.0596,-2.0596,-2.0597,-2.0598,-2.0598,-2.0599,-2.0599,-2.0599,-2.0599,-2.06,-2.06,-2.0601,-2.0601,-2.0601,-2.0601,-2.0602,-2.0602,-2.0602,-2.0602,0,0,0,0,0,0,-2.0594,-2.0595,-2.0595,-2.0596,-2.0597,-2.0598,-2.0598,-2.0598,-2.0599,-2.0599,-2.06,-2.06,-2.06,-2.0601,-2.0601,-2.0601,-2.0601,-2.0602,-2.0602,-2.0602,-2.0602,-2.0602,-2.0602,0,0,0,0,0,-2.0594,-2.0596,-2.0595,-2.0596,-2.0598,-2.0598,-2.0599,-2.0599,-2.0599,-2.0599,-2.0599,-2.06,-2.0601,-2.0601,-2.0601,-2.0601,-2.0602,-2.0602,-2.0602,-2.0602,-2.0602,-2.0602,0,0,0,0,0,0,-2.0595,-2.0596,-2.0596,-2.0598,-2.0598,-2.0598,-2.0599,-2.0599,-2.06,-2.06,-2.06,-2.06,-2.06,-2.0601,-2.0601,-2.0601,-2.0601,-2.0601,-2.0601,-2.0601,-2.0601,-2.0601,-2.0601,0,0,0,0,0,-2.0596,-2.0596,-2.0597,-2.0598,-2.0598,-2.0599,-2.0599,-2.0599,-2.06,-2.06,-2.06,-2.06,-2.06,-2.0601,-2.0601,-2.0602,-2.0601,-2.0602,-2.0602,-2.0602,-2.0601,-2.06,-2.06,-2.0602,-2.0602,-2.0602,0,0,-2.0597,-2.0597,-2.0598,-2.0599,-2.0599,-2.0599,-2.0599,-2.06,-2.06,-2.06,-2.06,-2.06,-2.0601,-2.0601,-2.0601,-2.0601,-2.0601,-2.0601,-2.0601,-2.0601,-2.06,-2.06,-2.06,-2.0602,-2.0602,-2.0602,0,0,-2.0599,-2.0599,-2.06,-2.06,-2.06,-2.06,-2.06,-2.06,-2.06,-2.0601,-2.06,-2.06,-2.0601,-2.0601,-2.0601,-2.06,-2.06,-2.0601,-2.06,-2.0599,-2.0599,-2.0599,-2.0598,-2.0598,-2.0601,-2.0601,-2.0601,0,-2.06,-2.0601,-2.0601,-2.0601,-2.0601,-2.06,-2.06,-2.06,-2.0601,-2.06,-2.0601,-2.06,-2.0601,-2.06,-2.06,-2.06,-2.06,-2.0601,-2.0599,-2.0599,-2.0599,-2.0598,-2.0597,-2.06,-2.06,-2.0601,-2.0601,0,-2.0601,-2.0602,-2.0602,-2.0602,-2.0602,-2.0602,-2.0601,-2.0601,-2.0601,-2.0601,-2.06,-2.06,-2.06,-2.06,-2.06,-2.0599,-2.0599,-2.0599,-2.0599,-2.0598,-2.0597,-2.0597,-2.06,-2.06,-2.06,-2.06,0,0,-2.0605,-2.0604,-2.0604,-2.0603,-2.0602,-2.0602,-2.0602,-2.0601,-2.0601,-2.06,-2.06,-2.0599,-2.0599,-2.0599,-2.0599,-2.0598,-2.0596,-2.0598,-2.0598,-2.0597,-2.0594,-2.0594,-2.0593,-2.0596,-2.0596,-2.0596,-2.0594,0,-2.0606,-2.0606,-2.0605,-2.0604,-2.0604,-2.0603,-2.0602,-2.0601,-2.0601,-2.06,-2.0599,-2.0599,-2.0599,-2.0598,-2.0598,-2.0597,-2.0596,-2.0597,-2.0595,-2.0595,-2.0595,-2.0593,-2.0593,-2.059,-2.0593,-2.0593,-2.0593,0,-2.0608,-2.0607,-2.0606,-2.0604,-2.0604,-2.0604,-2.0602,-2.0601,-2.06,-2.0599,-2.0599,-2.0598,-2.0597,-2.0597,-2.0595,-2.0596,-2.0595,-2.0594,-2.0594,-2.0594,-2.0594,-2.0592,-2.059,-2.0589,-2.0593,-2.0593,-2.0593,0,-2.0609,-2.0608,-2.0607,-2.0606,-2.0604,-2.0604,-2.0603,-2.0601,-2.06,-2.0599,-2.0598,-2.0597,-2.0596,-2.0595,-2.0594,-2.0594,-2.0591,-2.0592,-2.059,-2.059,-2.0589,-2.0589,-2.0587,-2.059,-2.059,-2.059,-2.059,0,-2.0611,-2.061,-2.0607,-2.0607,-2.0605,-2.0604,-2.0603,-2.0602,-2.06,-2.0599,-2.0598,-2.0597,-2.0595,-2.0594,-2.0593,-2.0591,-2.059,-2.0589,-2.0589,-2.0589,-2.0589,-2.0588,-2.0588,-2.059,-2.059,-2.059,-2.059,0,-2.0612,-2.0611,-2.0609,-2.0607,-2.0606,-2.0605,-2.0603,-2.0602,-2.06,-2.0599,-2.0598,-2.0596,-2.0594,-2.0593,-2.059,-2.0589,-2.0587,-2.0587,-2.0587,-2.0587,-2.0585,-2.0585,-2.0581,-2.058,-2.0584,-2.0584,-2.0584,0,-2.0613,-2.0612,-2.0609,-2.0608,-2.0607,-2.0605,-2.0604,-2.0602,-2.0601,-2.0598,-2.0597,-2.0595,-2.0593,-2.0589,-2.0588,-2.0585,-2.0585,-2.0584,-2.0585,-2.0584,-2.0584,-2.0584,-2.0583,-2.0583,-2.0583,-2.0583,-2.0583,0,-2.0614,-2.0612,-2.0611,-2.0608,-2.0606,-2.0604,-2.0603,-2.0602,-2.0599,-2.0598,-2.0595,-2.0594,-2.059,-2.0588,-2.0585,-2.0584,-2.0583,-2.0583,-2.0582,-2.0582,-2.0582,-2.0581,-2.0586,-2.0583,-2.0583,-2.0583,-2.0583,-2.0583,-2.0614,-2.0613,-2.061,-2.0608,-2.0606,-2.0604,-2.0602,-2.06,-2.0598,-2.0595,-2.0594,-2.0591,-2.0588,-2.0584,-2.0583,-2.058,-2.058,-2.058,-2.058,-2.0579,-2.0579,-2.0583,-2.058,-2.058,-2.058,-2.058,-2.058,0,-2.0614,-2.0612,-2.061,-2.0607,-2.0604,-2.0603,-2.0601,-2.0599,-2.0596,-2.0594,-2.0591,-2.0588,-2.0585,-2.0582,-2.0579,-2.0578,-2.0577,-2.0577,-2.0577,-2.0576,-2.0579,-2.058,-2.0577,-2.0577,-2.0577,-2.0577,-2.0577,-2.0577,-2.0614,-2.0611,-2.061,-2.0606,-2.0603,-2.06,-2.0599,-2.0596,-2.0594,-2.059,-2.0587,-2.0585,-2.0583,-2.0579,-2.0576,-2.0575,-2.0574,-2.0574,-2.0573,-2.0576,-2.0576,-2.0576,-2.0577,-2.0573,-2.0573,-2.057,-2.057,-2.057]}]]